Regional Weather Roundup
Issued by NWS

Home | Current Version | Previous Version | Text Only | Print | Product List | Glossary Off
Versions: 1 2 3 4 5 6 7 8 9 10 11 12 13 14 15 16 17 18 19 20 21 22 23 24 25 26 27 28 29 30 31 32 33 34 35 36 37 38 39 40 41 42 43 44 45 46 47 48 49 50

000
ASUS45 KABQ 292001
RWRNM
NEW MEXICO REGIONAL WEATHER ROUNDUP
NATIONAL WEATHER SERVICE ALBUQUERQUE NM
200 PM MDT WED JUL 29 2015

NOTE: "FAIR" MEANS FEW OR NO CLOUDS BELOW 12,000 FEET AGL WITH NO
       SIGNIFICANT WEATHER OR OBSTRUCTIONS TO VISION.

      THIS PRODUCT IS RELEASED AS TWO VERSIONS.  ONE VERSION NEAR
      THE TOP OF THE HOUR CONTAINING PRELIMINARY DATA FROM ALBUQUERQUE
      AND OTHER STATIONS.  A FINAL VERSION WITH ADDITIONAL DATA IS
      ISSUED ABOUT 10 MINUTES AFTER THE HOUR.

NMZ501-503-504-510>518-292100-
NORTHWEST PLATEAU/NORTHCENTRAL MOUNTAINS

CITY           SKY/WX    TMP DP  RH WIND       PRES   REMARKS
FARMINGTON     SUNNY     82  38  20 SE17      30.26F
SANTA FE       LGT RAIN  69  59  70 SE9       30.37F
TAOS           PTSUNNY   79  46  31 W5        30.40S

$$
NMZ402-403-502-505>509-292100-
WESTCENTRAL MOUNTAINS/SOUTHWEST MOUNTAINS

CITY           SKY/WX    TMP DP  RH WIND       PRES   REMARKS
GALLUP         LGT RAIN  75  48  38 W6        30.36F
SILVER CITY      N/A     82  54  36 S10G23    30.29R

$$
NMZ407-409-411-412-292100-
SOUTHERN DESERTS

CITY           SKY/WX    TMP DP  RH WIND       PRES   REMARKS
DEMING         MOSUNNY   85  56  37 NE5       30.19F
HOLLOMAN AFB   MOSUNNY   89  56  32 S8        30.15F
ALAMOGORDO     MOSUNNY   90  57  33 N6        30.18F
T OR C         PTSUNNY   85  57  38 MISG      30.21F

$$
NMZ519>523-292100-
CENTRAL VALLEYS/CENTRAL HIGHLANDS

CITY           SKY/WX    TMP DP  RH WIND       PRES   REMARKS
ALBUQUERQUE    PTSUNNY   83  54  36 N12       30.28F
DOUBLE EAGLE   PTSUNNY   79  55  44 N9        30.33F
MORIARTY ARPT    N/A     77  54  43 SE15      30.37S
CLINES CORNERS PTSUNNY   72  54  53 E13       30.41F
BELEN          FAIR      85  51  30 E9        30.26F
SOCORRO        NOT AVBL

$$
NMZ524>526-539-540-292100-
SOUTHCENTRAL MOUNTAINS

CITY           SKY/WX    TMP DP  RH WIND       PRES   REMARKS
RUIDOSO          N/A    N/A N/A N/A MISG        N/A

$$
NMZ527>531-292100-
NORTHEAST HIGHLANDS/NORTHEAST PLAINS

CITY           SKY/WX    TMP DP  RH WIND       PRES   REMARKS
LAS VEGAS      CLOUDY    72  55  55 S7        30.43F
RATON          CLOUDY    76  53  44 SE5       30.38S
CLAYTON        SUNNY     79  55  43 NE8       30.32F

$$
NMZ532>537-292100-
EASTCENTRAL PLAINS

CITY           SKY/WX    TMP DP  RH WIND       PRES   REMARKS
TUCUMCARI      MOSUNNY   83  63  50 NE9       30.24F
CANNON AFB     SUNNY     84  62  47 E9        30.25F
CLOVIS AIRPORT SUNNY     84  61  45 NE3       30.26F

$$
NMZ028-029-538-292100-
SOUTHEAST PLAINS

CITY           SKY/WX    TMP DP  RH WIND       PRES   REMARKS
ROSWELL        MOSUNNY   92  57  30 E7        30.17F
ARTESIA        SUNNY     91  61  35 E12       30.16F
CARLSBAD       SUNNY     95  62  33 N12G17    30.11F HX  96
HOBBS          PTSUNNY   91  55  29 NE6G14    30.17F


$$



USA.gov is the U.S. government's official web portal to all federal, state and local government web resources and services.